NIMBUS 2 DEB

基本信息
目录编号:
25613
目录名称:
NIMBUS 2 DEB
国际标识:
1966-040F
轨道中心:
EARTH
物体状态:
在轨
发射日期:
1966-05-15 UTC
轨道信息
数据来源: 国际轨道数据
星历时间: 2026-07-13T17:14:44+0800
半长轴: 7393.084km
偏心率: 0.0022694
轨道倾角: 100.453°
近地点辐角: 5.180°
升交点赤经: 350.885°
平近点角: 63.040°
近地点: 998.169km
远地点: 1031.725km
周期: 105.438分钟
每日圈数: 13.657285
详细信息
发射场:
AFWTR
轨道高度:
LEO
数据来源:
AOE Integration Group
参考系:
TEME
时间系统:
UTC
历元类型:
SGP4
2D轨道图
3D轨道图
轨道高度分析图
轨道倾角分析图
轨道综合分析图
查看轨道综合分析图